Data supplied by UK-AIR on 1/4/2011
All Data GMT hour ending 
Status: R =Ratified P=Provisional,P*=As supplied
,,Ladybower,,,,,,,,,,,,,,,,,,,,,,,
Date,time,"Nitric oxide",status,unit,"Nitrogen dioxide",status,unit,"Nitrogen oxides as nitrogen dioxide",status,unit,"Ozone",status,unit,"Sulphur dioxide",status,unit
 
01-01-2010,01:00,,,,,,,,,,70,R,ugm-3,0.0,R,ugm-3
01-01-2010,02:00,1.0,R,ugm-3,4.8,R,ugm-3,6.3,R,ugm-3,70,R,ugm-3,0.0,R,ugm-3
01-01-2010,03:00,1.4,R,ugm-3,4.8,R,ugm-3,6.9,R,ugm-3,68,R,ugm-3,0.0,R,ugm-3
01-01-2010,04:00,1.0,R,ugm-3,7.1,R,ugm-3,8.6,R,ugm-3,68,R,ugm-3,2.7,R,ugm-3
01-01-2010,05:00,0.8,R,ugm-3,5.3,R,ugm-3,6.5,R,ugm-3,68,R,ugm-3,0.0,R,ugm-3
01-01-2010,06:00,1.0,R,ugm-3,3.2,R,ugm-3,4.8,R,ugm-3,72,R,ugm-3,0.0,R,ugm-3
01-01-2010,07:00,0.4,R,ugm-3,2.7,R,ugm-3,3.2,R,ugm-3,70,R,ugm-3,0.0,R,ugm-3
01-01-2010,08:00,1.4,R,ugm-3,0.0,R,ugm-3,2.1,R,ugm-3,70,R,ugm-3,0.0,R,ugm-3
01-01-2010,09:00,1.4,R,ugm-3,0.0,R,ugm-3,2.1,R,ugm-3,68,R,ugm-3,0.0,R,ugm-3
01-01-2010,10:00,1.4,R,ugm-3,8.0,R,ugm-3,10.1,R,ugm-3,74,R,ugm-3,0.0,R,ugm-3
01-01-2010,11:00,1.4,R,ugm-3,4.2,R,ugm-3,6.3,R,ugm-3,70,R,ugm-3,0.0,R,ugm-3
01-01-2010,12:00,2.1,R,ugm-3,5.9,R,ugm-3,9.2,R,ugm-3,68,R,ugm-3,0.0,R,ugm-3
01-01-2010,13:00,2.4,R,ugm-3,6.5,R,ugm-3,10.1,R,ugm-3,66,R,ugm-3,0.0,R,ugm-3
01-01-2010,14:00,2.8,R,ugm-3,8.0,R,ugm-3,12.2,R,ugm-3,66,R,ugm-3,1.9,R,ugm-3
01-01-2010,15:00,3.1,R,ugm-3,18.7,R,ugm-3,23.5,R,ugm-3,54,R,ugm-3,0.0,R,ugm-3
01-01-2010,16:00,3.1,R,ugm-3,30.4,R,ugm-3,35.1,R,ugm-3,44,R,ugm-3,0.0,R,ugm-3
01-01-2010,17:00,1.4,R,ugm-3,34.0,R,ugm-3,36.1,R,ugm-3,42,R,ugm-3,3.5,R,ugm-3
01-01-2010,18:00,1.4,R,ugm-3,24.4,R,ugm-3,26.5,R,ugm-3,48,R,ugm-3,0.0,R,ugm-3
01-01-2010,19:00,1.4,R,ugm-3,21.8,R,ugm-3,23.9,R,ugm-3,48,R,ugm-3,0.0,R,ugm-3
01-01-2010,20:00,1.4,R,ugm-3,13.9,R,ugm-3,16.0,R,ugm-3,56,R,ugm-3,0.0,R,ugm-3
01-01-2010,21:00,1.4,R,ugm-3,4.8,R,ugm-3,6.9,R,ugm-3,64,R,ugm-3,0.8,R,ugm-3
01-01-2010,22:00,1.4,R,ugm-3,7.1,R,ugm-3,9.2,R,ugm-3,60,R,ugm-3,0.8,R,ugm-3
01-01-2010,23:00,1.4,R,ugm-3,3.2,R,ugm-3,5.3,R,ugm-3,64,R,ugm-3,0.0,R,ugm-3
01-01-2010,24:00,1.4,R,ugm-3,3.2,R,ugm-3,5.3,R,ugm-3,64,R,ugm-3,0.0,R,ugm-3
02-01-2010,01:00,1.4,R,ugm-3,14.1,R,ugm-3,16.2,R,ugm-3,50,R,ugm-3,0.0,R,ugm-3
02-01-2010,02:00,1.0,R,ugm-3,14.3,R,ugm-3,15.9,R,ugm-3,50,R,ugm-3,0.0,R,ugm-3
02-01-2010,03:00,1.4,R,ugm-3,10.7,R,ugm-3,12.8,R,ugm-3,52,R,ugm-3,0.0,R,ugm-3
02-01-2010,04:00,1.4,R,ugm-3,4.8,R,ugm-3,6.9,R,ugm-3,60,R,ugm-3,0.0,R,ugm-3
02-01-2010,05:00,1.0,R,ugm-3,4.8,R,ugm-3,6.3,R,ugm-3,62,R,ugm-3,2.7,R,ugm-3
02-01-2010,06:00,1.0,R,ugm-3,3.6,R,ugm-3,5.2,R,ugm-3,62,R,ugm-3,0.8,R,ugm-3
02-01-2010,07:00,1.4,R,ugm-3,4.2,R,ugm-3,6.3,R,ugm-3,60,R,ugm-3,0.0,R,ugm-3
02-01-2010,08:00,1.4,R,ugm-3,3.2,R,ugm-3,5.3,R,ugm-3,62,R,ugm-3,0.8,R,ugm-3
02-01-2010,09:00,1.4,R,ugm-3,1.5,R,ugm-3,3.6,R,ugm-3,66,R,ugm-3,0.0,R,ugm-3
02-01-2010,10:00,,,,,,,,,,62,R,ugm-3,0.0,R,ugm-3
02-01-2010,11:00,1.4,R,ugm-3,7.6,R,ugm-3,9.7,R,ugm-3,66,R,ugm-3,0.0,R,ugm-3
02-01-2010,12:00,1.4,R,ugm-3,8.0,R,ugm-3,10.1,R,ugm-3,62,R,ugm-3,0.0,R,ugm-3
02-01-2010,13:00,2.4,R,ugm-3,9.2,R,ugm-3,12.8,R,ugm-3,58,R,ugm-3,0.0,R,ugm-3
02-01-2010,14:00,3.9,R,ugm-3,14.7,R,ugm-3,20.6,R,ugm-3,54,R,ugm-3,3.5,R,ugm-3
02-01-2010,15:00,3.9,R,ugm-3,19.7,R,ugm-3,25.6,R,ugm-3,50,R,ugm-3,3.5,R,ugm-3
02-01-2010,16:00,2.1,R,ugm-3,17.6,R,ugm-3,20.8,R,ugm-3,48,R,ugm-3,2.7,R,ugm-3
02-01-2010,17:00,1.4,R,ugm-3,12.2,R,ugm-3,14.3,R,ugm-3,46,R,ugm-3,0.0,R,ugm-3
02-01-2010,18:00,1.4,R,ugm-3,8.6,R,ugm-3,10.7,R,ugm-3,52,R,ugm-3,0.0,R,ugm-3
02-01-2010,19:00,1.4,R,ugm-3,16.0,R,ugm-3,18.1,R,ugm-3,42,R,ugm-3,1.9,R,ugm-3
02-01-2010,20:00,1.4,R,ugm-3,18.1,R,ugm-3,20.2,R,ugm-3,32,R,ugm-3,11.2,R,ugm-3
02-01-2010,21:00,1.4,R,ugm-3,12.2,R,ugm-3,14.3,R,ugm-3,36,R,ugm-3,12.8,R,ugm-3
02-01-2010,22:00,1.0,R,ugm-3,7.6,R,ugm-3,9.2,R,ugm-3,44,R,ugm-3,8.5,R,ugm-3
02-01-2010,23:00,0.8,R,ugm-3,1.5,R,ugm-3,2.7,R,ugm-3,54,R,ugm-3,2.7,R,ugm-3
02-01-2010,24:00,1.4,R,ugm-3,4.2,R,ugm-3,6.3,R,ugm-3,48,R,ugm-3,8.5,R,ugm-3
03-01-2010,01:00,,,,,,,,,,50,R,ugm-3,8.0,R,ugm-3
03-01-2010,02:00,1.4,R,ugm-3,6.5,R,ugm-3,8.6,R,ugm-3,50,R,ugm-3,3.5,R,ugm-3
03-01-2010,03:00,1.4,R,ugm-3,8.6,R,ugm-3,10.7,R,ugm-3,46,R,ugm-3,6.1,R,ugm-3
03-01-2010,04:00,1.0,R,ugm-3,6.5,R,ugm-3,8.0,R,ugm-3,46,R,ugm-3,2.7,R,ugm-3
03-01-2010,05:00,1.4,R,ugm-3,3.2,R,ugm-3,5.3,R,ugm-3,46,R,ugm-3,2.7,R,ugm-3
03-01-2010,06:00,1.0,R,ugm-3,2.7,R,ugm-3,4.2,R,ugm-3,46,R,ugm-3,1.9,R,ugm-3
03-01-2010,07:00,1.4,R,ugm-3,7.1,R,ugm-3,9.2,R,ugm-3,38,R,ugm-3,6.9,R,ugm-3
03-01-2010,08:00,1.0,R,ugm-3,7.1,R,ugm-3,8.6,R,ugm-3,38,R,ugm-3,4.3,R,ugm-3
03-01-2010,09:00,1.4,R,ugm-3,4.8,R,ugm-3,6.9,R,ugm-3,34,R,ugm-3,0.0,R,ugm-3
03-01-2010,10:00,,,,,,,,,,36,R,ugm-3,0.8,R,ugm-3
03-01-2010,11:00,2.8,R,ugm-3,8.0,R,ugm-3,12.2,R,ugm-3,36,R,ugm-3,0.8,R,ugm-3
03-01-2010,12:00,2.8,R,ugm-3,8.6,R,ugm-3,12.8,R,ugm-3,36,R,ugm-3,0.0,R,ugm-3
03-01-2010,13:00,4.3,R,ugm-3,7.4,R,ugm-3,13.9,R,ugm-3,36,R,ugm-3,4.3,R,ugm-3
03-01-2010,14:00,3.5,R,ugm-3,7.4,R,ugm-3,12.8,R,ugm-3,34,R,ugm-3,6.9,R,ugm-3
03-01-2010,15:00,1.8,R,ugm-3,5.9,R,ugm-3,8.6,R,ugm-3,38,R,ugm-3,0.8,R,ugm-3
03-01-2010,16:00,1.0,R,ugm-3,8.0,R,ugm-3,9.6,R,ugm-3,38,R,ugm-3,0.0,R,ugm-3
03-01-2010,17:00,1.4,R,ugm-3,8.6,R,ugm-3,10.7,R,ugm-3,34,R,ugm-3,1.9,R,ugm-3
03-01-2010,18:00,1.4,R,ugm-3,7.6,R,ugm-3,9.7,R,ugm-3,32,R,ugm-3,0.8,R,ugm-3
03-01-2010,19:00,1.4,R,ugm-3,10.1,R,ugm-3,12.2,R,ugm-3,32,R,ugm-3,1.9,R,ugm-3
03-01-2010,20:00,1.4,R,ugm-3,4.8,R,ugm-3,6.9,R,ugm-3,36,R,ugm-3,0.8,R,ugm-3
03-01-2010,21:00,1.4,R,ugm-3,2.1,R,ugm-3,4.2,R,ugm-3,38,R,ugm-3,0.0,R,ugm-3
03-01-2010,22:00,0.8,R,ugm-3,1.1,R,ugm-3,2.3,R,ugm-3,38,R,ugm-3,0.0,R,ugm-3
03-01-2010,23:00,1.4,R,ugm-3,0.0,R,ugm-3,2.1,R,ugm-3,40,R,ugm-3,0.0,R,ugm-3
03-01-2010,24:00,1.0,R,ugm-3,0.6,R,ugm-3,2.1,R,ugm-3,44,R,ugm-3,0.0,R,ugm-3
04-01-2010,01:00,1.4,R,ugm-3,2.1,R,ugm-3,4.2,R,ugm-3,50,R,ugm-3,0.0,R,ugm-3
04-01-2010,02:00,0.8,R,ugm-3,1.1,R,ugm-3,2.3,R,ugm-3,50,R,ugm-3,0.0,R,ugm-3
04-01-2010,03:00,0.8,R,ugm-3,1.1,R,ugm-3,2.3,R,ugm-3,44,R,ugm-3,0.0,R,ugm-3
04-01-2010,04:00,0.8,R,ugm-3,1.1,R,ugm-3,2.3,R,ugm-3,54,R,ugm-3,0.0,R,ugm-3
04-01-2010,05:00,1.0,R,ugm-3,1.5,R,ugm-3,3.1,R,ugm-3,54,R,ugm-3,0.0,R,ugm-3
04-01-2010,06:00,1.0,R,ugm-3,1.1,R,ugm-3,2.7,R,ugm-3,54,R,ugm-3,0.0,R,ugm-3
04-01-2010,07:00,0.4,R,ugm-3,1.5,R,ugm-3,2.1,R,ugm-3,54,R,ugm-3,0.0,R,ugm-3
04-01-2010,08:00,0.8,R,ugm-3,1.1,R,ugm-3,2.3,R,ugm-3,56,R,ugm-3,0.0,R,ugm-3
04-01-2010,09:00,0.8,R,ugm-3,1.5,R,ugm-3,2.7,R,ugm-3,58,R,ugm-3,0.0,R,ugm-3
04-01-2010,10:00,1.4,R,ugm-3,5.0,R,ugm-3,7.1,R,ugm-3,58,R,ugm-3,1.9,R,ugm-3
04-01-2010,11:00,1.4,R,ugm-3,7.6,R,ugm-3,9.7,R,ugm-3,58,R,ugm-3,0.8,R,ugm-3
04-01-2010,12:00,2.4,R,ugm-3,5.5,R,ugm-3,9.2,R,ugm-3,54,R,ugm-3,0.8,R,ugm-3
04-01-2010,13:00,2.4,R,ugm-3,7.1,R,ugm-3,10.7,R,ugm-3,54,R,ugm-3,0.8,R,ugm-3
04-01-2010,14:00,2.8,R,ugm-3,7.1,R,ugm-3,11.3,R,ugm-3,54,R,ugm-3,2.7,R,ugm-3
04-01-2010,15:00,3.9,R,ugm-3,13.8,R,ugm-3,19.7,R,ugm-3,46,R,ugm-3,3.5,R,ugm-3
04-01-2010,16:00,7.4,R,ugm-3,38.8,R,ugm-3,50.0,R,ugm-3,22,R,ugm-3,3.5,R,ugm-3
04-01-2010,17:00,22.5,R,ugm-3,67.2,R,ugm-3,101.6,R,ugm-3,2,R,ugm-3,4.3,R,ugm-3
04-01-2010,18:00,13.4,R,ugm-3,65.1,R,ugm-3,85.6,R,ugm-3,4,R,ugm-3,4.3,R,ugm-3
04-01-2010,19:00,3.1,R,ugm-3,55.8,R,ugm-3,60.5,R,ugm-3,8,R,ugm-3,2.7,R,ugm-3
04-01-2010,20:00,4.3,R,ugm-3,56.3,R,ugm-3,62.8,R,ugm-3,12,R,ugm-3,0.8,R,ugm-3
04-01-2010,21:00,1.4,R,ugm-3,29.8,R,ugm-3,31.9,R,ugm-3,30,R,ugm-3,2.7,R,ugm-3
04-01-2010,22:00,1.4,R,ugm-3,23.5,R,ugm-3,25.6,R,ugm-3,34,R,ugm-3,6.9,R,ugm-3
04-01-2010,23:00,1.0,R,ugm-3,21.2,R,ugm-3,22.7,R,ugm-3,36,R,ugm-3,9.3,R,ugm-3
04-01-2010,24:00,1.4,R,ugm-3,17.6,R,ugm-3,19.7,R,ugm-3,36,R,ugm-3,9.3,R,ugm-3
05-01-2010,01:00,1.4,R,ugm-3,14.1,R,ugm-3,16.2,R,ugm-3,42,R,ugm-3,4.5,R,ugm-3
05-01-2010,02:00,1.4,R,ugm-3,8.6,R,ugm-3,10.7,R,ugm-3,48,R,ugm-3,4.5,R,ugm-3
05-01-2010,03:00,1.4,R,ugm-3,8.0,R,ugm-3,10.1,R,ugm-3,48,R,ugm-3,8.5,R,ugm-3
05-01-2010,04:00,1.4,R,ugm-3,7.6,R,ugm-3,9.7,R,ugm-3,48,R,ugm-3,7.7,R,ugm-3
05-01-2010,05:00,1.4,R,ugm-3,7.6,R,ugm-3,9.7,R,ugm-3,46,R,ugm-3,5.3,R,ugm-3
05-01-2010,06:00,1.4,R,ugm-3,6.5,R,ugm-3,8.6,R,ugm-3,46,R,ugm-3,3.5,R,ugm-3
05-01-2010,07:00,1.4,R,ugm-3,3.8,R,ugm-3,5.9,R,ugm-3,52,R,ugm-3,6.9,R,ugm-3
05-01-2010,08:00,1.4,R,ugm-3,1.5,R,ugm-3,3.6,R,ugm-3,58,R,ugm-3,3.5,R,ugm-3
05-01-2010,09:00,1.4,R,ugm-3,1.1,R,ugm-3,3.2,R,ugm-3,52,R,ugm-3,0.8,R,ugm-3
05-01-2010,10:00,1.9,R,ugm-3,8.6,R,ugm-3,11.5,R,ugm-3,40,R,ugm-3,3.5,R,ugm-3
05-01-2010,11:00,6.4,R,ugm-3,32.9,R,ugm-3,42.6,R,ugm-3,40,R,ugm-3,3.5,R,ugm-3
05-01-2010,12:00,8.5,R,ugm-3,31.1,R,ugm-3,44.1,R,ugm-3,44,R,ugm-3,6.9,R,ugm-3
05-01-2010,13:00,4.9,R,ugm-3,24.4,R,ugm-3,31.9,R,ugm-3,52,R,ugm-3,3.5,R,ugm-3
05-01-2010,14:00,3.5,R,ugm-3,17.6,R,ugm-3,22.9,R,ugm-3,64,R,ugm-3,3.5,R,ugm-3
05-01-2010,15:00,2.8,R,ugm-3,21.4,R,ugm-3,25.6,R,ugm-3,62,R,ugm-3,3.5,R,ugm-3
05-01-2010,16:00,2.4,R,ugm-3,22.9,R,ugm-3,26.5,R,ugm-3,56,R,ugm-3,3.5,R,ugm-3
05-01-2010,17:00,1.4,R,ugm-3,20.2,R,ugm-3,22.3,R,ugm-3,60,R,ugm-3,4.3,R,ugm-3
05-01-2010,18:00,1.4,R,ugm-3,18.5,R,ugm-3,20.6,R,ugm-3,60,R,ugm-3,3.5,R,ugm-3
05-01-2010,19:00,1.4,R,ugm-3,13.4,R,ugm-3,15.5,R,ugm-3,64,R,ugm-3,3.5,R,ugm-3
05-01-2010,20:00,1.4,R,ugm-3,12.2,R,ugm-3,14.3,R,ugm-3,68,R,ugm-3,3.5,R,ugm-3
05-01-2010,21:00,1.4,R,ugm-3,15.5,R,ugm-3,17.6,R,ugm-3,62,R,ugm-3,5.3,R,ugm-3
05-01-2010,22:00,1.4,R,ugm-3,12.8,R,ugm-3,14.9,R,ugm-3,64,R,ugm-3,4.3,R,ugm-3
05-01-2010,23:00,1.0,R,ugm-3,11.8,R,ugm-3,13.4,R,ugm-3,66,R,ugm-3,3.5,R,ugm-3
05-01-2010,24:00,1.4,R,ugm-3,8.0,R,ugm-3,10.1,R,ugm-3,72,R,ugm-3,3.5,R,ugm-3
06-01-2010,01:00,1.4,R,ugm-3,5.0,R,ugm-3,7.1,R,ugm-3,76,R,ugm-3,0.0,R,ugm-3
06-01-2010,02:00,1.4,R,ugm-3,3.2,R,ugm-3,5.3,R,ugm-3,78,R,ugm-3,2.4,R,ugm-3
06-01-2010,03:00,0.8,R,ugm-3,5.9,R,ugm-3,7.1,R,ugm-3,72,R,ugm-3,5.3,R,ugm-3
06-01-2010,04:00,0.8,R,ugm-3,9.0,R,ugm-3,10.1,R,ugm-3,68,R,ugm-3,7.7,R,ugm-3
06-01-2010,05:00,1.4,R,ugm-3,3.6,R,ugm-3,5.7,R,ugm-3,70,R,ugm-3,4.3,R,ugm-3
06-01-2010,06:00,0.8,R,ugm-3,11.8,R,ugm-3,13.0,R,ugm-3,62,R,ugm-3,9.3,R,ugm-3
06-01-2010,07:00,1.4,R,ugm-3,7.1,R,ugm-3,9.2,R,ugm-3,66,R,ugm-3,6.1,R,ugm-3
06-01-2010,08:00,1.4,R,ugm-3,12.8,R,ugm-3,14.9,R,ugm-3,60,R,ugm-3,10.1,R,ugm-3
06-01-2010,09:00,1.4,R,ugm-3,12.8,R,ugm-3,14.9,R,ugm-3,60,R,ugm-3,9.3,R,ugm-3
06-01-2010,10:00,2.1,R,ugm-3,12.2,R,ugm-3,15.5,R,ugm-3,60,R,ugm-3,7.7,R,ugm-3
06-01-2010,11:00,4.8,R,ugm-3,26.2,R,ugm-3,33.4,R,ugm-3,58,R,ugm-3,7.7,R,ugm-3
06-01-2010,12:00,5.0,R,ugm-3,18.5,R,ugm-3,26.2,R,ugm-3,60,R,ugm-3,10.4,R,ugm-3
06-01-2010,13:00,3.5,R,ugm-3,12.2,R,ugm-3,17.6,R,ugm-3,66,R,ugm-3,7.7,R,ugm-3
06-01-2010,14:00,2.1,R,ugm-3,9.7,R,ugm-3,13.0,R,ugm-3,68,R,ugm-3,6.9,R,ugm-3
06-01-2010,15:00,3.3,R,ugm-3,14.9,R,ugm-3,19.9,R,ugm-3,66,R,ugm-3,11.2,R,ugm-3
06-01-2010,16:00,1.4,R,ugm-3,8.6,R,ugm-3,10.7,R,ugm-3,70,R,ugm-3,0.0,R,ugm-3
06-01-2010,17:00,1.4,R,ugm-3,14.9,R,ugm-3,17.0,R,ugm-3,64,R,ugm-3,0.8,R,ugm-3
06-01-2010,18:00,1.0,R,ugm-3,13.9,R,ugm-3,15.5,R,ugm-3,66,R,ugm-3,0.0,R,ugm-3
06-01-2010,19:00,1.4,R,ugm-3,19.3,R,ugm-3,21.4,R,ugm-3,58,R,ugm-3,2.7,R,ugm-3
06-01-2010,20:00,1.4,R,ugm-3,26.2,R,ugm-3,28.3,R,ugm-3,52,R,ugm-3,3.5,R,ugm-3
06-01-2010,21:00,0.8,R,ugm-3,16.6,R,ugm-3,17.8,R,ugm-3,60,R,ugm-3,3.5,R,ugm-3
06-01-2010,22:00,0.8,R,ugm-3,7.4,R,ugm-3,8.6,R,ugm-3,70,R,ugm-3,0.8,R,ugm-3
06-01-2010,23:00,1.0,R,ugm-3,3.6,R,ugm-3,5.2,R,ugm-3,72,R,ugm-3,0.0,R,ugm-3
06-01-2010,24:00,1.4,R,ugm-3,0.0,R,ugm-3,2.1,R,ugm-3,74,R,ugm-3,0.0,R,ugm-3
07-01-2010,01:00,0.9,R,ugm-3,2.9,R,ugm-3,4.2,R,ugm-3,74,R,ugm-3,0.0,R,ugm-3
07-01-2010,02:00,0.8,R,ugm-3,1.5,R,ugm-3,2.7,R,ugm-3,76,R,ugm-3,0.0,R,ugm-3
07-01-2010,03:00,1.4,R,ugm-3,0.0,R,ugm-3,2.1,R,ugm-3,76,R,ugm-3,0.0,R,ugm-3
07-01-2010,04:00,1.4,R,ugm-3,0.0,R,ugm-3,2.1,R,ugm-3,76,R,ugm-3,0.8,R,ugm-3
07-01-2010,05:00,1.0,R,ugm-3,0.6,R,ugm-3,2.1,R,ugm-3,76,R,ugm-3,0.0,R,ugm-3
07-01-2010,06:00,1.0,R,ugm-3,0.6,R,ugm-3,2.1,R,ugm-3,76,R,ugm-3,0.0,R,ugm-3
07-01-2010,07:00,1.0,R,ugm-3,0.6,R,ugm-3,2.1,R,ugm-3,78,R,ugm-3,0.0,R,ugm-3
07-01-2010,08:00,0.8,R,ugm-3,1.1,R,ugm-3,2.3,R,ugm-3,78,R,ugm-3,0.0,R,ugm-3
07-01-2010,09:00,1.0,R,ugm-3,0.6,R,ugm-3,2.1,R,ugm-3,78,R,ugm-3,0.0,R,ugm-3
07-01-2010,10:00,1.4,R,ugm-3,1.5,R,ugm-3,3.6,R,ugm-3,76,R,ugm-3,0.0,R,ugm-3
07-01-2010,11:00,1.4,R,ugm-3,12.0,R,ugm-3,14.1,R,ugm-3,76,R,ugm-3,0.0,R,ugm-3
07-01-2010,12:00,2.8,R,ugm-3,7.6,R,ugm-3,11.8,R,ugm-3,76,R,ugm-3,1.9,R,ugm-3
07-01-2010,13:00,2.8,R,ugm-3,8.6,R,ugm-3,12.8,R,ugm-3,74,R,ugm-3,3.5,R,ugm-3
07-01-2010,14:00,2.8,R,ugm-3,8.6,R,ugm-3,12.8,R,ugm-3,74,R,ugm-3,2.7,R,ugm-3
07-01-2010,15:00,1.8,R,ugm-3,8.0,R,ugm-3,10.7,R,ugm-3,74,R,ugm-3,0.8,R,ugm-3
07-01-2010,16:00,1.4,R,ugm-3,10.7,R,ugm-3,12.8,R,ugm-3,70,R,ugm-3,3.5,R,ugm-3
07-01-2010,17:00,1.4,R,ugm-3,13.4,R,ugm-3,15.5,R,ugm-3,68,R,ugm-3,3.5,R,ugm-3
07-01-2010,18:00,1.4,R,ugm-3,10.7,R,ugm-3,12.8,R,ugm-3,68,R,ugm-3,4.3,R,ugm-3
07-01-2010,19:00,1.4,R,ugm-3,11.8,R,ugm-3,13.9,R,ugm-3,66,R,ugm-3,0.8,R,ugm-3
07-01-2010,20:00,0.8,R,ugm-3,12.2,R,ugm-3,13.4,R,ugm-3,66,R,ugm-3,2.7,R,ugm-3
07-01-2010,21:00,1.0,R,ugm-3,11.8,R,ugm-3,13.4,R,ugm-3,66,R,ugm-3,0.8,R,ugm-3
07-01-2010,22:00,1.4,R,ugm-3,11.3,R,ugm-3,13.4,R,ugm-3,64,R,ugm-3,3.5,R,ugm-3
07-01-2010,23:00,1.4,R,ugm-3,10.1,R,ugm-3,12.2,R,ugm-3,66,R,ugm-3,3.5,R,ugm-3
07-01-2010,24:00,0.8,R,ugm-3,8.0,R,ugm-3,9.2,R,ugm-3,66,R,ugm-3,3.5,R,ugm-3
08-01-2010,01:00,,,,,,,,,,,,,6.9,R,ugm-3
08-01-2010,02:00,1.4,R,ugm-3,6.5,R,ugm-3,8.6,R,ugm-3,68,R,ugm-3,6.9,R,ugm-3
08-01-2010,03:00,1.0,R,ugm-3,7.1,R,ugm-3,8.6,R,ugm-3,66,R,ugm-3,6.1,R,ugm-3
08-01-2010,04:00,1.4,R,ugm-3,4.8,R,ugm-3,6.9,R,ugm-3,66,R,ugm-3,3.5,R,ugm-3
08-01-2010,05:00,1.4,R,ugm-3,4.8,R,ugm-3,6.9,R,ugm-3,64,R,ugm-3,2.7,R,ugm-3
08-01-2010,06:00,1.4,R,ugm-3,3.6,R,ugm-3,5.7,R,ugm-3,66,R,ugm-3,3.5,R,ugm-3
08-01-2010,07:00,1.0,R,ugm-3,7.6,R,ugm-3,9.2,R,ugm-3,64,R,ugm-3,2.7,R,ugm-3
08-01-2010,08:00,0.4,R,ugm-3,8.0,R,ugm-3,8.6,R,ugm-3,68,R,ugm-3,3.5,R,ugm-3
08-01-2010,09:00,1.4,R,ugm-3,10.1,R,ugm-3,12.2,R,ugm-3,66,R,ugm-3,3.5,R,ugm-3
08-01-2010,10:00,2.4,R,ugm-3,13.4,R,ugm-3,17.0,R,ugm-3,64,R,ugm-3,3.5,R,ugm-3
08-01-2010,11:00,4.3,R,ugm-3,19.1,R,ugm-3,25.6,R,ugm-3,66,R,ugm-3,6.1,R,ugm-3
08-01-2010,12:00,5.6,R,ugm-3,20.6,R,ugm-3,29.2,R,ugm-3,66,R,ugm-3,6.9,R,ugm-3
08-01-2010,13:00,6.4,R,ugm-3,17.6,R,ugm-3,27.3,R,ugm-3,66,R,ugm-3,6.9,R,ugm-3
08-01-2010,14:00,8.1,R,ugm-3,24.4,R,ugm-3,36.9,R,ugm-3,58,R,ugm-3,6.1,R,ugm-3
08-01-2010,15:00,6.0,R,ugm-3,25.4,R,ugm-3,34.6,R,ugm-3,56,R,ugm-3,3.5,R,ugm-3
08-01-2010,16:00,3.5,R,ugm-3,30.4,R,ugm-3,35.7,R,ugm-3,46,R,ugm-3,3.5,R,ugm-3
08-01-2010,17:00,1.8,R,ugm-3,33.0,R,ugm-3,35.7,R,ugm-3,44,R,ugm-3,6.1,R,ugm-3
08-01-2010,18:00,1.4,R,ugm-3,9.0,R,ugm-3,11.1,R,ugm-3,68,R,ugm-3,3.5,R,ugm-3
08-01-2010,19:00,0.4,R,ugm-3,3.6,R,ugm-3,4.2,R,ugm-3,72,R,ugm-3,2.7,R,ugm-3
08-01-2010,20:00,1.0,R,ugm-3,8.6,R,ugm-3,10.1,R,ugm-3,66,R,ugm-3,4.3,R,ugm-3
08-01-2010,21:00,1.4,R,ugm-3,14.3,R,ugm-3,16.4,R,ugm-3,56,R,ugm-3,6.1,R,ugm-3
08-01-2010,22:00,0.8,R,ugm-3,12.2,R,ugm-3,13.4,R,ugm-3,56,R,ugm-3,6.9,R,ugm-3
08-01-2010,23:00,1.0,R,ugm-3,12.8,R,ugm-3,14.3,R,ugm-3,54,R,ugm-3,9.3,R,ugm-3
08-01-2010,24:00,1.0,R,ugm-3,11.8,R,ugm-3,13.4,R,ugm-3,58,R,ugm-3,6.9,R,ugm-3
09-01-2010,01:00,,,,,,,,,,58,R,ugm-3,3.5,R,ugm-3
09-01-2010,02:00,1.4,R,ugm-3,8.0,R,ugm-3,10.1,R,ugm-3,62,R,ugm-3,2.4,R,ugm-3
09-01-2010,03:00,0.8,R,ugm-3,9.2,R,ugm-3,10.3,R,ugm-3,62,R,ugm-3,2.7,R,ugm-3
09-01-2010,04:00,1.4,R,ugm-3,10.7,R,ugm-3,12.8,R,ugm-3,54,R,ugm-3,3.5,R,ugm-3
09-01-2010,05:00,1.0,R,ugm-3,11.8,R,ugm-3,13.4,R,ugm-3,54,R,ugm-3,2.7,R,ugm-3
09-01-2010,06:00,1.0,R,ugm-3,12.8,R,ugm-3,14.3,R,ugm-3,52,R,ugm-3,5.1,R,ugm-3
09-01-2010,07:00,0.4,R,ugm-3,10.1,R,ugm-3,10.7,R,ugm-3,54,R,ugm-3,0.8,R,ugm-3
09-01-2010,08:00,0.4,R,ugm-3,10.1,R,ugm-3,10.7,R,ugm-3,54,R,ugm-3,4.3,R,ugm-3
09-01-2010,09:00,1.4,R,ugm-3,11.3,R,ugm-3,13.4,R,ugm-3,52,R,ugm-3,5.3,R,ugm-3
09-01-2010,10:00,1.4,R,ugm-3,10.7,R,ugm-3,12.8,R,ugm-3,54,R,ugm-3,2.7,R,ugm-3
09-01-2010,11:00,3.3,R,ugm-3,14.1,R,ugm-3,19.1,R,ugm-3,54,R,ugm-3,3.5,R,ugm-3
09-01-2010,12:00,5.3,R,ugm-3,22.7,R,ugm-3,30.8,R,ugm-3,56,R,ugm-3,9.3,R,ugm-3
09-01-2010,13:00,3.9,R,ugm-3,12.6,R,ugm-3,18.5,R,ugm-3,62,R,ugm-3,6.1,R,ugm-3
09-01-2010,14:00,3.5,R,ugm-3,11.1,R,ugm-3,16.4,R,ugm-3,64,R,ugm-3,5.3,R,ugm-3
09-01-2010,15:00,2.8,R,ugm-3,10.7,R,ugm-3,14.9,R,ugm-3,64,R,ugm-3,6.1,R,ugm-3
09-01-2010,16:00,1.8,R,ugm-3,10.1,R,ugm-3,12.8,R,ugm-3,62,R,ugm-3,6.1,R,ugm-3
09-01-2010,17:00,1.4,R,ugm-3,11.8,R,ugm-3,13.9,R,ugm-3,60,R,ugm-3,4.3,R,ugm-3
09-01-2010,18:00,1.4,R,ugm-3,12.8,R,ugm-3,14.9,R,ugm-3,60,R,ugm-3,6.1,R,ugm-3
09-01-2010,19:00,1.4,R,ugm-3,10.7,R,ugm-3,12.8,R,ugm-3,62,R,ugm-3,4.3,R,ugm-3
09-01-2010,20:00,1.0,R,ugm-3,11.3,R,ugm-3,12.8,R,ugm-3,62,R,ugm-3,6.9,R,ugm-3
09-01-2010,21:00,1.0,R,ugm-3,8.0,R,ugm-3,9.6,R,ugm-3,64,R,ugm-3,4.3,R,ugm-3
09-01-2010,22:00,1.4,R,ugm-3,5.9,R,ugm-3,8.0,R,ugm-3,66,R,ugm-3,3.5,R,ugm-3
09-01-2010,23:00,1.0,R,ugm-3,8.6,R,ugm-3,10.1,R,ugm-3,64,R,ugm-3,7.7,R,ugm-3
09-01-2010,24:00,1.4,R,ugm-3,7.1,R,ugm-3,9.2,R,ugm-3,64,R,ugm-3,9.3,R,ugm-3
10-01-2010,01:00,1.4,R,ugm-3,10.7,R,ugm-3,12.8,R,ugm-3,66,R,ugm-3,6.9,R,ugm-3
10-01-2010,02:00,0.8,R,ugm-3,5.9,R,ugm-3,7.1,R,ugm-3,72,R,ugm-3,5.9,R,ugm-3
10-01-2010,03:00,1.0,R,ugm-3,4.2,R,ugm-3,5.7,R,ugm-3,72,R,ugm-3,5.3,R,ugm-3
10-01-2010,04:00,0.4,R,ugm-3,4.2,R,ugm-3,4.8,R,ugm-3,74,R,ugm-3,3.5,R,ugm-3
10-01-2010,05:00,0.4,R,ugm-3,4.2,R,ugm-3,4.8,R,ugm-3,74,R,ugm-3,4.3,R,ugm-3
10-01-2010,06:00,1.0,R,ugm-3,8.0,R,ugm-3,9.6,R,ugm-3,70,R,ugm-3,9.3,R,ugm-3
10-01-2010,07:00,1.4,R,ugm-3,8.0,R,ugm-3,10.1,R,ugm-3,70,R,ugm-3,10.1,R,ugm-3
10-01-2010,08:00,1.0,R,ugm-3,9.7,R,ugm-3,11.3,R,ugm-3,70,R,ugm-3,12.8,R,ugm-3
10-01-2010,09:00,1.4,R,ugm-3,9.2,R,ugm-3,11.3,R,ugm-3,70,R,ugm-3,6.1,R,ugm-3
10-01-2010,10:00,1.8,R,ugm-3,12.4,R,ugm-3,15.1,R,ugm-3,66,R,ugm-3,10.4,R,ugm-3
10-01-2010,11:00,2.8,R,ugm-3,13.9,R,ugm-3,18.1,R,ugm-3,64,R,ugm-3,15.4,R,ugm-3
10-01-2010,12:00,,,,,,,,,,72,R,ugm-3,7.7,R,ugm-3
10-01-2010,13:00,3.1,R,ugm-3,22.3,R,ugm-3,27.1,R,ugm-3,60,R,ugm-3,20.5,R,ugm-3
10-01-2010,14:00,2.1,R,ugm-3,13.9,R,ugm-3,17.2,R,ugm-3,68,R,ugm-3,11.2,R,ugm-3
10-01-2010,15:00,1.4,R,ugm-3,5.0,R,ugm-3,7.1,R,ugm-3,74,R,ugm-3,4.3,R,ugm-3
10-01-2010,16:00,1.4,R,ugm-3,4.2,R,ugm-3,6.3,R,ugm-3,74,R,ugm-3,6.1,R,ugm-3
10-01-2010,17:00,1.4,R,ugm-3,6.5,R,ugm-3,8.6,R,ugm-3,72,R,ugm-3,6.1,R,ugm-3
10-01-2010,18:00,1.4,R,ugm-3,4.8,R,ugm-3,6.9,R,ugm-3,72,R,ugm-3,4.3,R,ugm-3
10-01-2010,19:00,0.8,R,ugm-3,3.2,R,ugm-3,4.4,R,ugm-3,74,R,ugm-3,2.7,R,ugm-3
10-01-2010,20:00,1.0,R,ugm-3,2.7,R,ugm-3,4.2,R,ugm-3,72,R,ugm-3,0.0,R,ugm-3
10-01-2010,21:00,0.8,R,ugm-3,3.2,R,ugm-3,4.4,R,ugm-3,72,R,ugm-3,1.9,R,ugm-3
10-01-2010,22:00,1.4,R,ugm-3,4.2,R,ugm-3,6.3,R,ugm-3,68,R,ugm-3,3.5,R,ugm-3
10-01-2010,23:00,1.4,R,ugm-3,3.2,R,ugm-3,5.3,R,ugm-3,68,R,ugm-3,3.5,R,ugm-3
10-01-2010,24:00,1.4,R,ugm-3,4.8,R,ugm-3,6.9,R,ugm-3,66,R,ugm-3,3.5,R,ugm-3
11-01-2010,01:00,1.4,R,ugm-3,4.2,R,ugm-3,6.3,R,ugm-3,66,R,ugm-3,3.5,R,ugm-3
11-01-2010,02:00,0.8,R,ugm-3,3.6,R,ugm-3,4.8,R,ugm-3,68,R,ugm-3,3.5,R,ugm-3
11-01-2010,03:00,1.0,R,ugm-3,2.1,R,ugm-3,3.6,R,ugm-3,66,R,ugm-3,3.5,R,ugm-3
11-01-2010,04:00,1.4,R,ugm-3,2.7,R,ugm-3,4.8,R,ugm-3,66,R,ugm-3,4.3,R,ugm-3
11-01-2010,05:00,1.0,R,ugm-3,3.2,R,ugm-3,4.8,R,ugm-3,66,R,ugm-3,3.5,R,ugm-3
11-01-2010,06:00,1.4,R,ugm-3,6.5,R,ugm-3,8.6,R,ugm-3,60,R,ugm-3,4.3,R,ugm-3
11-01-2010,07:00,1.0,R,ugm-3,10.1,R,ugm-3,11.7,R,ugm-3,58,R,ugm-3,4.3,R,ugm-3
11-01-2010,08:00,1.4,R,ugm-3,11.8,R,ugm-3,13.9,R,ugm-3,56,R,ugm-3,4.3,R,ugm-3
11-01-2010,09:00,1.0,R,ugm-3,16.0,R,ugm-3,17.6,R,ugm-3,52,R,ugm-3,3.5,R,ugm-3
11-01-2010,10:00,1.8,R,ugm-3,19.7,R,ugm-3,22.3,R,ugm-3,50,R,ugm-3,3.5,R,ugm-3
11-01-2010,11:00,3.5,R,ugm-3,25.6,R,ugm-3,30.9,R,ugm-3,44,R,ugm-3,2.7,R,ugm-3
11-01-2010,12:00,,,,,,,,,,40,R,ugm-3,0.8,R,ugm-3
11-01-2010,13:00,7.0,R,ugm-3,39.9,R,ugm-3,50.6,R,ugm-3,38,R,ugm-3,3.5,R,ugm-3
11-01-2010,14:00,4.3,R,ugm-3,23.3,R,ugm-3,29.8,R,ugm-3,50,R,ugm-3,3.5,R,ugm-3
11-01-2010,15:00,2.8,R,ugm-3,22.5,R,ugm-3,26.7,R,ugm-3,52,R,ugm-3,3.5,R,ugm-3
11-01-2010,16:00,2.1,R,ugm-3,20.4,R,ugm-3,23.7,R,ugm-3,54,R,ugm-3,3.5,R,ugm-3
11-01-2010,17:00,1.4,R,ugm-3,21.4,R,ugm-3,23.5,R,ugm-3,52,R,ugm-3,3.5,R,ugm-3
11-01-2010,18:00,1.0,R,ugm-3,22.0,R,ugm-3,23.5,R,ugm-3,52,R,ugm-3,3.5,R,ugm-3
11-01-2010,19:00,1.0,R,ugm-3,27.1,R,ugm-3,28.7,R,ugm-3,46,R,ugm-3,3.5,R,ugm-3
11-01-2010,20:00,1.4,R,ugm-3,22.0,R,ugm-3,24.1,R,ugm-3,50,R,ugm-3,2.7,R,ugm-3
11-01-2010,21:00,1.4,R,ugm-3,12.4,R,ugm-3,14.5,R,ugm-3,58,R,ugm-3,3.5,R,ugm-3
11-01-2010,22:00,1.4,R,ugm-3,7.1,R,ugm-3,9.2,R,ugm-3,60,R,ugm-3,3.5,R,ugm-3
11-01-2010,23:00,1.4,R,ugm-3,8.6,R,ugm-3,10.7,R,ugm-3,58,R,ugm-3,3.5,R,ugm-3
11-01-2010,24:00,1.0,R,ugm-3,9.7,R,ugm-3,11.3,R,ugm-3,56,R,ugm-3,3.5,R,ugm-3
12-01-2010,01:00,1.4,R,ugm-3,17.8,R,ugm-3,19.9,R,ugm-3,50,R,ugm-3,0.0,R,ugm-3
12-01-2010,02:00,1.4,R,ugm-3,8.0,R,ugm-3,10.1,R,ugm-3,58,R,ugm-3,0.0,R,ugm-3
12-01-2010,03:00,1.4,R,ugm-3,7.1,R,ugm-3,9.2,R,ugm-3,58,R,ugm-3,0.0,R,ugm-3
12-01-2010,04:00,1.4,R,ugm-3,8.6,R,ugm-3,10.7,R,ugm-3,56,R,ugm-3,0.0,R,ugm-3
12-01-2010,05:00,1.0,R,ugm-3,8.6,R,ugm-3,10.1,R,ugm-3,54,R,ugm-3,0.0,R,ugm-3
12-01-2010,06:00,1.4,R,ugm-3,11.3,R,ugm-3,13.4,R,ugm-3,50,R,ugm-3,0.8,R,ugm-3
12-01-2010,07:00,1.4,R,ugm-3,12.2,R,ugm-3,14.3,R,ugm-3,48,R,ugm-3,0.8,R,ugm-3
12-01-2010,08:00,1.4,R,ugm-3,13.9,R,ugm-3,16.0,R,ugm-3,48,R,ugm-3,0.0,R,ugm-3
12-01-2010,09:00,1.4,R,ugm-3,12.8,R,ugm-3,14.9,R,ugm-3,52,R,ugm-3,0.0,R,ugm-3
12-01-2010,10:00,1.4,R,ugm-3,7.1,R,ugm-3,9.2,R,ugm-3,58,R,ugm-3,0.0,R,ugm-3
12-01-2010,11:00,1.8,R,ugm-3,9.2,R,ugm-3,11.8,R,ugm-3,54,R,ugm-3,0.0,R,ugm-3
12-01-2010,12:00,,,,,,,,,,52,R,ugm-3,0.8,R,ugm-3
12-01-2010,13:00,2.8,R,ugm-3,14.9,R,ugm-3,19.1,R,ugm-3,50,R,ugm-3,2.7,R,ugm-3
12-01-2010,14:00,2.1,R,ugm-3,16.0,R,ugm-3,19.3,R,ugm-3,46,R,ugm-3,3.5,R,ugm-3
12-01-2010,15:00,2.3,R,ugm-3,20.1,R,ugm-3,23.5,R,ugm-3,40,R,ugm-3,3.5,R,ugm-3
12-01-2010,16:00,1.4,R,ugm-3,21.4,R,ugm-3,23.5,R,ugm-3,38,R,ugm-3,1.9,R,ugm-3
12-01-2010,17:00,1.4,R,ugm-3,24.6,R,ugm-3,26.7,R,ugm-3,30,R,ugm-3,4.3,R,ugm-3
12-01-2010,18:00,1.4,R,ugm-3,26.2,R,ugm-3,28.3,R,ugm-3,30,R,ugm-3,6.1,R,ugm-3
12-01-2010,19:00,1.4,R,ugm-3,22.9,R,ugm-3,25.0,R,ugm-3,32,R,ugm-3,6.1,R,ugm-3
12-01-2010,20:00,1.4,R,ugm-3,25.6,R,ugm-3,27.7,R,ugm-3,28,R,ugm-3,6.9,R,ugm-3
12-01-2010,21:00,1.4,R,ugm-3,29.8,R,ugm-3,31.9,R,ugm-3,24,R,ugm-3,5.3,R,ugm-3
12-01-2010,22:00,1.4,R,ugm-3,38.4,R,ugm-3,40.5,R,ugm-3,16,R,ugm-3,3.5,R,ugm-3
12-01-2010,23:00,1.4,R,ugm-3,36.3,R,ugm-3,38.4,R,ugm-3,18,R,ugm-3,3.5,R,ugm-3
12-01-2010,24:00,1.4,R,ugm-3,21.4,R,ugm-3,23.5,R,ugm-3,28,R,ugm-3,3.5,R,ugm-3
13-01-2010,01:00,,,,,,,,,,28,R,ugm-3,2.4,R,ugm-3
13-01-2010,02:00,1.4,R,ugm-3,26.2,R,ugm-3,28.3,R,ugm-3,20,R,ugm-3,3.5,R,ugm-3
13-01-2010,03:00,1.4,R,ugm-3,30.9,R,ugm-3,33.0,R,ugm-3,18,R,ugm-3,3.5,R,ugm-3
13-01-2010,04:00,1.4,R,ugm-3,44.7,R,ugm-3,46.8,R,ugm-3,6,R,ugm-3,3.5,R,ugm-3
13-01-2010,05:00,1.4,R,ugm-3,46.8,R,ugm-3,48.9,R,ugm-3,6,R,ugm-3,5.3,R,ugm-3
13-01-2010,06:00,2.1,R,ugm-3,51.2,R,ugm-3,54.4,R,ugm-3,2,R,ugm-3,6.1,R,ugm-3
13-01-2010,07:00,2.8,R,ugm-3,52.0,R,ugm-3,56.2,R,ugm-3,2,R,ugm-3,6.9,R,ugm-3
13-01-2010,08:00,4.3,R,ugm-3,51.6,R,ugm-3,58.1,R,ugm-3,2,R,ugm-3,6.9,R,ugm-3
13-01-2010,09:00,5.3,R,ugm-3,49.5,R,ugm-3,57.5,R,ugm-3,4,R,ugm-3,6.9,R,ugm-3
13-01-2010,10:00,9.5,R,ugm-3,43.5,R,ugm-3,58.1,R,ugm-3,8,R,ugm-3,6.9,R,ugm-3
13-01-2010,11:00,12.0,R,ugm-3,37.6,R,ugm-3,56.0,R,ugm-3,12,R,ugm-3,6.9,R,ugm-3
13-01-2010,12:00,11.3,R,ugm-3,37.4,R,ugm-3,54.6,R,ugm-3,12,R,ugm-3,6.9,R,ugm-3
13-01-2010,13:00,11.3,R,ugm-3,40.3,R,ugm-3,57.5,R,ugm-3,16,R,ugm-3,5.3,R,ugm-3
13-01-2010,14:00,9.9,R,ugm-3,36.1,R,ugm-3,51.2,R,ugm-3,16,R,ugm-3,6.9,R,ugm-3
13-01-2010,15:00,10.6,R,ugm-3,36.7,R,ugm-3,52.9,R,ugm-3,14,R,ugm-3,6.9,R,ugm-3
13-01-2010,16:00,7.0,R,ugm-3,38.8,R,ugm-3,49.5,R,ugm-3,14,R,ugm-3,6.9,R,ugm-3
13-01-2010,17:00,3.1,R,ugm-3,42.0,R,ugm-3,46.8,R,ugm-3,10,R,ugm-3,6.9,R,ugm-3
13-01-2010,18:00,1.8,R,ugm-3,47.9,R,ugm-3,50.6,R,ugm-3,4,R,ugm-3,6.9,R,ugm-3
13-01-2010,19:00,2.8,R,ugm-3,48.5,R,ugm-3,52.7,R,ugm-3,2,R,ugm-3,6.9,R,ugm-3
13-01-2010,20:00,1.4,R,ugm-3,48.5,R,ugm-3,50.6,R,ugm-3,4,R,ugm-3,6.9,R,ugm-3
13-01-2010,21:00,4.9,R,ugm-3,52.1,R,ugm-3,59.6,R,ugm-3,2,R,ugm-3,9.3,R,ugm-3
13-01-2010,22:00,6.6,R,ugm-3,52.1,R,ugm-3,62.3,R,ugm-3,2,R,ugm-3,9.3,R,ugm-3